Погода в Джубе

Южный Судан     4˚50′59″N   31˚34′55″E
темп.,
°C
ветер,
м/с
пор.,
м/с
влажн.,
%
обл.,
%
осадки,
мм/ч
давл.,
гПа
погр.,
м
6 декабря, вс
вс623:00+28˚св124668 0.0 101130
02:00+26˚с115044 0.0 101024
05:00+24˚зсз11550 0.0 101023
08:00+30˚ссв01401 0.0 1012372
11:00+34˚всв34300 0.0 10111782
14:00+36˚в34240 0.0 10072606
17:00+35˚св23260 0.0 10061522
20:00+32˚св243233 0.0 1009127
7 декабря, пн
пн723:00+28˚св224232 0.0 100931
02:00+26˚св124516 0.0 100830
05:00+25˚ююз22490 0.0 100933
08:00+29˚сз234117 0.0 1012333
11:00+36˚ссв23273 0.0 10111574
14:00+35˚ссв332810 0.0 10082603
17:00+33˚ссв463571 0.0 1007991
20:00+29˚ссв114261 0.0 101024
8 декабря, вт
вт823:00+28˚сз11480 0.2 101024
02:00+26˚всв11501 0.2 100924
05:00+26˚ююв235416 0.0 101048
08:00+29˚ю354648 0.0 1012361
11:00+35˚ссз223333 0.0 10111802
14:00+34˚юв233530 0.2 10081676
17:00+28˚зюз135675 1.8 1009406
20:00+28˚юз126087 1.8 1011150
9 декабря, ср
ср923:00+25˚с116832 0.3 101228
02:00+24˚юз127116 0.3 101028
05:00+23˚ююв257742 0.0 1010134
08:00+28˚ююв235849 0.0 1012382
11:00+36˚в23339 0.0 10101692
14:00+35˚ссв242926 0.0 10072674
17:00+30˚з234463 0.3 1007126
20:00+27˚зсз115250 0.4 100924
10 декабря, чт
чт1023:00+26˚зюз115413 0.0 100924
02:00+25˚юз22577 0.0 100826
05:00+24˚ю22610 0.0 100927
08:00+29˚ююв24492 0.0 1011400
11:00+36˚вюв24283 0.0 10091841
14:00+36˚св452327 0.0 10063188
17:00+35˚св242473 0.0 1005501
20:00+31˚ссв263378 0.0 1007224